Location: Caltech
(34.1382°N, 118.1253°W)
Time: 09:13:26
(UTC-07:00)

BREEZE M DEB (TANK) - Visible Passes

Search period start: 01 August 2015 00:00
Search period end: 11 August 2015 00:00
Orbit: 310 x 13786 km, 49.6° (Epoch: 30 July)

Date Brightness Start Highest point End Pass type
(mag) Time Alt. Az. Time Alt. Az. Time Alt. Az.
01 Aug 8.9 01:04:50 10° NW 02:24:01 16° W 02:41:08 10° WSW visible
01 Aug 8.4 21:49:03 10° NW 23:44:45 55° WSW 00:17:01 31° SSW visible
02 Aug 8.4 18:55:34 10° WNW 20:38:09 85° NE 21:47:34 23° SE visible
03 Aug 8.8 00:07:14 10° NW 01:40:15 23° W 02:05:39 12° SW visible
03 Aug 8.3 21:00:53 10° NW 22:57:19 63° WSW 23:36:13 31° S visible
04 Aug 8.5 18:09:48 10° WNW 19:39:59 78° NNE 21:06:50 15° SE visible
04 Aug 8.7 23:13:54 10° NW 00:55:54 31° W 01:24:56 16° SW visible
05 Aug 8.3 20:13:27 10° NW 22:08:09 72° WSW 22:55:33 28° S visible
06 Aug 8.6 17:24:27 10° WNW 18:40:03 72° NNE 20:24:18 10° SE visible
06 Aug 8.6 22:22:57 10° NW 00:10:50 39° WSW 00:44:20 19° SW visible
07 Aug 8.4 19:26:39 10° NW 21:16:51 81° SW 22:15:02 22° SSE visible
08 Aug 8.5 21:33:30 10° NW 23:24:51 47° WSW 00:03:52 20° SSW visible
09 Aug 8.5 18:40:21 10° WNW 20:23:01 89° SW 21:34:37 16° SSE visible
09 Aug 9.0 23:55:11 10° NW 01:20:01 17° W 01:40:18 10° WSW visible
10 Aug 8.5 20:45:09 10° NW 22:37:42 56° WSW 23:23:30 19° S visible
